Flag Weather past 2 weeks in Bietigheim-Bissingen, Baden-Württemberg, Germany

Now
42 °F

Scattered clouds.


Feels Like: 40 °F
Forecast: 35 / 46 °F
Wind: 3 mph from Northeast

Location: Stuttgart-Echterdingen

Current Time: Nov 28, 2014 at 12:38:06 PM

Latest Report: Nov 28, 2014 at 12:00 PM


Visibility: 9 mi

Pressure: 29.86 "Hg

Humidity: 80%

Dew point: 36 °F

Location of Bietigheim-BissingenLocation

Historic Weather in Bietigheim-Bissingen — Graph

°F

Bietigheim-Bissingen temperature yesterday

Maximum temperature yesterday: 46 °F (at 1:00 PM)
Minimum temperature yesterday: 39 °F (at 11:00 PM)
Average temperature yesterday: 42 °F

Past Weeks' High & Low Weather Summary

 TemperatureHumidityPressure
High56 °F (Nov 22, 2:00 PM)100% (Nov 20, 8:00 AM)30.35 "Hg (Nov 20, 8:00 AM)
Low34 °F (Nov 23, 9:00 AM)65% (Nov 16, 3:00 PM)29.54 "Hg (Nov 16, 12:00 AM)
Average44 °F90%29.99 "Hg
* Reported Nov 13 11:00 AM — Nov 28 11:00 AM, Bietigheim-Bissingen, Weather by CustomWeather, © 2014

Note: Actual official high and low records may vary slightly from our data, if they occured in-between our weather recording intervals... More about our weather records

Advertising

Bietigheim-Bissingen weather history for previous 24 hours

 ConditionsComfort  
Time TempWeatherWind HumidityBarometerVisibility
11:00 AM
Nov 28
40 °FScattered clouds.5 mph84%29.86 "Hg7 mi
10:00 AM38 °FFog.5 mph91%29.87 "Hg4 mi
9:00 AM35 °FFog.3 mph96%29.88 "Hg3 mi
8:00 AM34 °FFog.2 mph97%29.87 "Hg3 mi
7:00 AM34 °FFog.1 mph98%29.86 "Hg5 mi
6:00 AM34 °FFog.1 mph98%29.85 "Hg5 mi
5:00 AM34 °FPassing clouds.1 mph97%29.86 "Hg5 mi
3:00 AM36 °FPassing clouds.1 mph97%29.86 "Hg5 mi
2:00 AM36 °FPassing clouds.1 mph97%29.85 "Hg5 mi
1:00 AM38 °FPassing clouds.1 mph94%29.85 "Hg6 mi
12:00 AM39 °FLow clouds.2 mph93%29.85 "Hg9 mi
11:00 PM
Nov 27
39 °FLow clouds.1 mph95%29.85 "Hg9 mi
10:00 PM40 °FOvercast.2 mph91%29.85 "Hg9 mi
9:00 PM40 °FOvercast.3 mph90%29.85 "Hg9 mi
8:00 PM41 °FOvercast.3 mph90%29.84 "Hg9 mi
7:00 PM41 °FOvercast.3 mph90%29.84 "Hg8 mi
6:00 PM41 °FOvercast.3 mph90%29.83 "Hg8 mi
5:00 PM41 °FOvercast.3 mph90%29.81 "Hg9 mi
4:00 PM43 °FOvercast.3 mph87%29.81 "Hg9 mi
3:00 PM45 °FOvercast.2 mph84%29.80 "Hg11 mi
2:00 PM45 °FOvercast.2 mph82%29.80 "Hg11 mi
1:00 PM46 °FOvercast.3 mph80%29.81 "Hg11 mi
12:00 PM44 °FOvercast.2 mph84%29.83 "Hg11 mi
Weather by CustomWeather, © 2014

See weather overviewHow to use our weather pages